Mound City, IL

10:07 PM CDT on August 24, 2016 (GMT -0500)
Cairo Regional

Weather History for KCIR - February, 2014

Change the Weather History Date:

Monday, February 24, 2014

  Actual Average Record
Temperature  
Mean Temperature 36 °F -  
Max Temperature 45 °F 48 °F 71 °F (1957)
Min Temperature 27 °F 32 °F 13 °F (1967)
Degree Days  
Heating Degree Days 29    
Moisture  
Dew Point 17 °F    
Average Humidity 48    
Maximum Humidity 74    
Minimum Humidity 25    
Precipitation  
Precipitation 0.00 in - - ()
Sea Level Pressure  
Sea Level Pressure 30.29 in    
Wind  
Wind Speed 8 mph (NNE)    
Max Wind Speed 16 mph    
Max Gust Speed 18 mph    
Visibility 10 miles    
Events      
Averages and records for this station are not official NWS values.
T = Trace of Precipitation, MM = Missing Value Source: NWS Daily Summary

Daily Weather History Graph

Daily Weather History Graph

Search for Another Location

Airport or City:

Trip Planner

Search our weather history database for the weather conditions in past years. The results will help you decide how hot, cold, wet, or windy it might be!

Date:

Astronomy

Feb. 24, 2014 Rise Set
Actual Time 6:34 AM CST 5:46 PM CST
Civil Twilight 6:08 AM CST 6:12 PM CST
Nautical Twilight 5:38 AM CST 6:42 PM CST
Astronomical Twilight 5:08 AM CST 7:12 PM CST
Moon 2:28 AM CST (2/24) 12:51 PM CST (2/24)
Length of Visible Light 12h 04m
Length of Day
11h 11m
Waning Crescent, 28% of the Moon is Illuminated
Feb 24
Waning Crescent
Mar 1
New
Mar 8
First Quarter
Mar 16
Full
Mar 23
Last Quarter

Hourly Weather History & Observations

Time (CST) Temp. Windchill Dew Point Humidity Pressure Visibility Wind Dir Wind Speed Gust Speed Precip Events Conditions
12:15 AM 32.0 °F 24.2 °F 20.1 °F 62% 30.30 in 10.0 mi North 9.2 mph - N/A   Clear
12:35 AM 32.0 °F 25.6 °F 19.9 °F 61% 30.30 in 10.0 mi North 6.9 mph - N/A   Clear
12:55 AM 31.5 °F 26.8 °F 19.8 °F 62% 30.30 in 10.0 mi NNE 4.6 mph - N/A   Clear
1:15 AM 31.3 °F 24.7 °F 20.1 °F 63% 30.30 in 10.0 mi North 6.9 mph - N/A   Clear
1:35 AM 31.1 °F 24.5 °F 20.3 °F 64% 30.31 in 10.0 mi North 6.9 mph - N/A   Clear
1:55 AM 30.7 °F 26.0 °F 20.3 °F 65% 30.31 in 10.0 mi North 4.6 mph - N/A   Clear
2:15 AM 30.2 °F 24.3 °F 20.3 °F 67% 30.31 in 10.0 mi North 5.8 mph - N/A   Clear
2:35 AM 30.2 °F 24.3 °F 20.3 °F 67% 30.30 in 10.0 mi NNE 5.8 mph - N/A   Clear
2:55 AM 30.2 °F 25.4 °F 20.1 °F 66% 30.31 in 10.0 mi North 4.6 mph - N/A   Clear
3:15 AM 29.8 °F 24.9 °F 20.3 °F 68% 30.32 in 10.0 mi North 4.6 mph - N/A   Clear
3:35 AM 29.5 °F 23.4 °F 20.3 °F 69% 30.32 in 10.0 mi North 5.8 mph - N/A   Clear
3:55 AM 29.3 °F 23.2 °F 20.7 °F 70% 30.31 in 10.0 mi NNE 5.8 mph - N/A   Clear
4:15 AM 28.8 °F 22.6 °F 20.3 °F 71% 30.32 in 10.0 mi NNE 5.8 mph - N/A   Clear
4:35 AM 28.8 °F 25.0 °F 20.7 °F 72% 30.32 in 10.0 mi NNE 3.5 mph - N/A   Clear
4:55 AM 28.2 °F 23.1 °F 20.3 °F 72% 30.32 in 10.0 mi NNE 4.6 mph - N/A   Clear
5:15 AM 28.4 °F 21.2 °F 20.5 °F 72% 30.32 in 10.0 mi NNE 6.9 mph - N/A   Clear
5:35 AM 28.2 °F 21.0 °F 20.8 °F 74% 30.32 in 10.0 mi NNE 6.9 mph - N/A   Clear
5:55 AM 28.2 °F 21.0 °F 20.3 °F 72% 30.34 in 10.0 mi North 6.9 mph - N/A   Clear
6:15 AM 28.2 °F 21.0 °F 20.3 °F 72% 30.36 in 10.0 mi North 6.9 mph - N/A   Clear
6:35 AM 28.0 °F 21.7 °F 20.3 °F 73% 30.36 in 10.0 mi North 5.8 mph - N/A   Clear
6:55 AM 27.9 °F 19.8 °F 20.3 °F 73% 30.37 in 10.0 mi North 8.1 mph - N/A   Clear
7:15 AM 28.6 °F 22.4 °F 20.7 °F 72% 30.37 in 10.0 mi North 5.8 mph - N/A   Clear
7:35 AM 29.7 °F 22.8 °F 19.4 °F 66% 30.37 in 10.0 mi NNE 6.9 mph - N/A   Clear
7:55 AM 30.9 °F 22.2 °F 18.5 °F 60% 30.38 in 10.0 mi NNE 10.4 mph - N/A   Clear
8:15 AM 32.0 °F 23.6 °F 18.3 °F 57% 30.38 in 10.0 mi NNE 10.4 mph - N/A   Clear
8:35 AM 32.0 °F 23.6 °F 16.7 °F 53% 30.38 in 10.0 mi NE 10.4 mph - N/A   Clear
8:55 AM 33.1 °F 24.9 °F 16.0 °F 50% 30.38 in 10.0 mi NNE 10.4 mph - N/A   Clear
9:15 AM 34.2 °F 26.8 °F 15.4 °F 46% 30.38 in 10.0 mi NE 9.2 mph - N/A   Clear
9:35 AM 34.9 °F 27.7 °F 14.7 °F 44% 30.37 in 10.0 mi NE 9.2 mph - N/A   Clear
9:55 AM 36.0 °F 27.5 °F 13.1 °F 39% 30.36 in 10.0 mi ENE 12.7 mph - N/A   Clear
10:15 AM 36.7 °F 27.2 °F 11.1 °F 35% 30.35 in 10.0 mi NE 16.1 mph - N/A   Clear
10:35 AM 37.9 °F 30.5 °F 11.1 °F 33% 30.36 in 10.0 mi NE 11.5 mph 18.4 mph N/A   Clear
10:55 AM 38.5 °F 30.3 °F 11.7 °F 33% 30.37 in 10.0 mi NE 13.8 mph - N/A   Clear
11:15 AM 39.4 °F 31.8 °F 13.3 °F 34% 30.37 in 10.0 mi NE 12.7 mph - N/A   Clear
11:35 AM 40.5 °F 32.1 °F 13.6 °F 34% 30.35 in 10.0 mi NE 16.1 mph - N/A   Clear
11:55 AM 41.7 °F 34.4 °F 14.5 °F 33% 30.33 in 10.0 mi NE 13.8 mph - N/A   Clear
12:15 PM 42.3 °F 35.5 °F 14.9 °F 33% 30.34 in 10.0 mi NNE 12.7 mph - N/A   Clear
12:35 PM 42.4 °F 36.1 °F 13.3 °F 31% 30.33 in 10.0 mi NE 11.5 mph - N/A   Clear
12:55 PM 42.3 °F 37.9 °F 12.0 °F 29% 30.33 in 10.0 mi North 6.9 mph - N/A   Clear
1:15 PM 43.2 °F 38.4 °F 11.7 °F 28% 30.31 in 10.0 mi NNE 8.1 mph - N/A   Clear
1:35 PM 44.1 °F 39.5 °F 12.9 °F 28% 30.31 in 10.0 mi ENE 8.1 mph - N/A   Clear
1:55 PM 44.6 °F 40.2 °F 11.1 °F 26% 30.30 in 10.0 mi ENE 8.1 mph - N/A   Clear
2:15 PM 45.5 °F 40.3 °F 11.8 °F 26% 30.28 in 10.0 mi ENE 10.4 mph - N/A   Clear
2:35 PM 45.9 °F 42.9 °F 12.4 °F 26% 30.28 in 10.0 mi NE 5.8 mph - N/A   Clear
2:55 PM 45.3 °F 41.1 °F 11.5 °F 25% 30.28 in 10.0 mi ENE 8.1 mph - N/A   Clear
3:15 PM 45.3 °F 41.1 °F 11.8 °F 26% 30.26 in 10.0 mi NNE 8.1 mph - N/A   Clear
3:35 PM 45.5 °F 40.3 °F 11.7 °F 25% 30.25 in 10.0 mi NE 10.4 mph - N/A   Clear
3:55 PM 44.2 °F 39.2 °F 10.9 °F 26% 30.25 in 10.0 mi NNE 9.2 mph - N/A   Clear
4:15 PM 44.6 °F 39.2 °F 10.0 °F 25% 30.24 in 10.0 mi NE 10.4 mph 16.1 mph N/A   Clear
4:35 PM 44.2 °F 38.8 °F 12.4 °F 28% 30.23 in 10.0 mi NE 10.4 mph - N/A   Clear
4:55 PM 43.3 °F 38.1 °F 12.7 °F 29% 30.23 in 10.0 mi NE 9.2 mph - N/A   Clear
5:15 PM 42.6 °F 37.2 °F 12.6 °F 30% 30.22 in 10.0 mi NNE 9.2 mph - N/A   Clear
5:35 PM 40.8 °F 36.2 °F 13.1 °F 32% 30.22 in 10.0 mi NNE 6.9 mph - N/A   Clear
5:55 PM 38.8 °F 35.4 °F 14.0 °F 36% 30.22 in 10.0 mi NE 4.6 mph - N/A   Clear
6:15 PM 37.6 °F 35.1 °F 15.8 °F 41% 30.22 in 10.0 mi NNE 3.5 mph - N/A   Clear
6:35 PM 38.3 °F 34.8 °F 14.7 °F 38% 30.23 in 10.0 mi NNE 4.6 mph - N/A   Clear
6:55 PM 37.8 °F 32.5 °F 15.4 °F 40% 30.22 in 10.0 mi NE 6.9 mph - N/A   Mostly Cloudy
7:15 PM 39.0 °F 33.4 °F 19.6 °F 46% 30.22 in 10.0 mi NE 8.1 mph - N/A   Overcast
7:35 PM 39.2 °F 33.0 °F 17.6 °F 42% 30.22 in 10.0 mi NNE 9.2 mph - N/A   Overcast
7:55 PM 38.8 °F 32.6 °F 16.5 °F 40% 30.22 in 10.0 mi NNE 9.2 mph - N/A   Overcast
8:15 PM 38.3 °F 31.9 °F 17.1 °F 42% 30.22 in 10.0 mi NNE 9.2 mph - N/A   Overcast
8:35 PM 37.9 °F 31.5 °F 16.9 °F 43% 30.23 in 10.0 mi NE 9.2 mph - N/A   Overcast
8:55 PM 37.9 °F 31.5 °F 17.8 °F 44% 30.22 in 10.0 mi NE 9.2 mph - N/A   Overcast
9:15 PM 37.6 °F 31.0 °F 18.3 °F 46% 30.22 in 10.0 mi NE 9.2 mph - N/A   Overcast
9:35 PM 37.4 °F 31.4 °F 19.6 °F 49% 30.22 in 10.0 mi NE 8.1 mph - N/A   Overcast
9:55 PM 37.6 °F 30.5 °F 17.6 °F 44% 30.21 in 10.0 mi NE 10.4 mph - N/A   Overcast
10:15 PM 37.4 °F 30.3 °F 18.5 °F 46% 30.22 in 5.0 mi NE 10.4 mph - N/A   Haze
10:35 PM 36.9 °F 30.1 °F 19.0 °F 49% 30.22 in 10.0 mi NNE 9.2 mph - N/A   Overcast
10:55 PM 36.7 °F 30.5 °F 18.1 °F 47% 30.22 in 10.0 mi NNE 8.1 mph - N/A   Overcast
11:15 PM 36.7 °F 29.4 °F 18.0 °F 47% 30.22 in 10.0 mi NNE 10.4 mph - N/A   Overcast
11:35 PM 36.5 °F 31.8 °F 18.9 °F 49% 30.22 in 10.0 mi NNE 5.8 mph - N/A   Overcast
11:50 PM 36.5 °F 30.3 °F 19.0 °F 49% 30.22 in 10.0 mi NNE 8.1 mph - N/A   Overcast